Location: Ferma
(41.9500°N, 44.5167°E)
Time: 19:40:18
(UTC+00:00)

FENGYUN 1C DEB - Pass Details

Date: 16 August 2022
Orbit: 606 x 930 km, 99.7° (Epoch: 01 October)

Event Time Altitude Azimuth Distance (km) Brightness Sun altitude
Exits shadow 18:35:04 30° 213° (SSW) 1,372 ? -24.5°
Maximum altitude 18:37:02 43° 261° (W) 1,118 ? -24.7°
Drops below altitude 10° 18:42:15 10° 332° (NNW) 2,483 ? -25.4°
Sets 18:44:52 0° 339° (NNW) 3,468 ? -25.7°
